Time,TemperatureF,DewpointF,PressureIn,WindDirection,WindDirectionDegrees,WindSpeedMPH,WindSpeedGustMPH,Humidity,HourlyPrecipIn,Conditions,Clouds,dailyrainin,SoftwareType,DateUTC
2013-01-07 00:00:00,36.3,29.1,30.32,SW,219,5.0,5.0,75,0.00,,,0.01,Wunderground v.1.15,2013-01-07 05:00:00,
2013-01-07 00:05:00,36.2,29.0,30.32,WNW,292,6.0,10.0,75,0.00,,,0.00,Wunderground v.1.15,2013-01-07 05:05:00,
2013-01-07 00:10:00,36.0,28.8,30.33,WSW,258,5.0,5.0,75,0.00,,,0.00,Wunderground v.1.15,2013-01-07 05:10:00,
2013-01-07 00:15:00,35.8,28.6,30.33,West,273,5.0,7.0,75,0.00,,,0.00,Wunderground v.1.15,2013-01-07 05:15:00,
2013-01-07 00:25:00,35.3,28.2,30.33,NW,306,3.0,5.0,75,0.00,,,0.00,Wunderground v.1.15,2013-01-07 05:25:00,
2013-01-07 00:30:00,35.1,28.3,30.33,WNW,303,2.0,2.0,76,0.00,,,0.00,Wunderground v.1.15,2013-01-07 05:30:00,
2013-01-07 00:40:00,34.6,28.1,30.34,West,276,1.0,1.0,77,0.00,,,0.00,Wunderground v.1.15,2013-01-07 05:40:00,
2013-01-07 00:45:00,34.6,27.8,30.34,WNW,288,1.0,2.0,76,0.00,,,0.00,Wunderground v.1.15,2013-01-07 05:45:00,
2013-01-07 00:50:00,34.6,28.1,30.34,NNW,327,1.0,4.0,77,0.00,,,0.00,Wunderground v.1.15,2013-01-07 05:50:00,
2013-01-07 00:55:00,34.8,28.0,30.34,West,269,2.0,4.0,76,0.00,,,0.00,Wunderground v.1.15,2013-01-07 05:55:00,
2013-01-07 01:00:00,34.8,28.3,30.33,West,269,1.0,1.0,77,0.00,,,0.00,Wunderground v.1.15,2013-01-07 06:00:00,
2013-01-07 01:10:00,34.8,28.0,30.33,WSW,254,1.0,2.0,76,0.00,,,0.00,Wunderground v.1.15,2013-01-07 06:10:00,
2013-01-07 01:15:00,34.9,28.1,30.33,NW,308,2.0,4.0,76,0.00,,,0.00,Wunderground v.1.15,2013-01-07 06:15:00,
2013-01-07 01:25:00,35.0,28.2,30.34,West,268,2.0,5.0,76,0.00,,,0.00,Wunderground v.1.15,2013-01-07 06:25:00,
2013-01-07 01:30:00,35.0,28.2,30.34,WNW,282,2.0,2.0,76,0.00,,,0.00,Wunderground v.1.15,2013-01-07 06:30:00,
2013-01-07 01:40:00,35.0,28.2,30.35,West,268,4.0,4.0,76,0.00,,,0.00,Wunderground v.1.15,2013-01-07 06:40:00,
2013-01-07 01:45:00,34.9,28.4,30.35,NW,313,4.0,5.0,77,0.00,,,0.00,Wunderground v.1.15,2013-01-07 06:45:00,
2013-01-07 01:55:00,34.8,28.3,30.35,WNW,298,2.0,4.0,77,0.00,,,0.00,Wunderground v.1.15,2013-01-07 06:55:00,
2013-01-07 02:00:00,34.7,28.2,30.35,West,269,3.0,9.0,77,0.00,,,0.00,Wunderground v.1.15,2013-01-07 07:00:00,
2013-01-07 02:05:00,34.6,28.1,30.35,West,265,4.0,9.0,77,0.00,,,0.00,Wunderground v.1.15,2013-01-07 07:05:00,
2013-01-07 02:10:00,34.5,28.0,30.35,West,263,4.0,4.0,77,0.00,,,0.00,Wunderground v.1.15,2013-01-07 07:10:00,
2013-01-07 02:15:00,34.4,27.9,30.35,WNW,287,5.0,9.0,77,0.00,,,0.00,Wunderground v.1.15,2013-01-07 07:15:00,
2013-01-07 02:25:00,34.3,27.5,30.35,WNW,300,5.0,6.0,76,0.00,,,0.00,Wunderground v.1.15,2013-01-07 07:25:00,
2013-01-07 02:30:00,34.0,27.5,30.35,WNW,302,5.0,5.0,77,0.00,,,0.00,Wunderground v.1.15,2013-01-07 07:30:00,
2013-01-07 02:40:00,33.6,27.2,30.36,NW,310,5.0,6.0,77,0.00,,,0.00,Wunderground v.1.15,2013-01-07 07:40:00,
2013-01-07 02:45:00,33.4,27.3,30.36,WNW,283,6.0,6.0,78,0.00,,,0.00,Wunderground v.1.15,2013-01-07 07:45:00,
2013-01-07 02:55:00,32.6,26.5,30.35,WNW,282,7.0,11.0,78,0.00,,,0.00,Wunderground v.1.15,2013-01-07 07:55:00,
2013-01-07 03:00:00,32.4,26.3,30.36,West,280,5.0,5.0,78,0.00,,,0.00,Wunderground v.1.15,2013-01-07 08:00:00,
2013-01-07 03:05:00,32.1,26.3,30.36,WSW,248,4.0,5.0,79,0.00,,,0.00,Wunderground v.1.15,2013-01-07 08:05:00,
2013-01-07 03:10:00,32.0,26.2,30.36,WSW,241,2.0,2.0,79,0.00,,,0.00,Wunderground v.1.15,2013-01-07 08:10:00,
2013-01-07 03:20:00,31.6,26.4,30.36,SW,236,0.0,0.0,81,0.00,,,0.00,Wunderground v.1.15,2013-01-07 08:20:00,
2013-01-07 03:25:00,31.5,26.0,30.37,West,266,1.0,3.0,80,0.00,,,0.00,Wunderground v.1.15,2013-01-07 08:25:00,
2013-01-07 03:30:00,31.5,26.0,30.37,NW,308,2.0,2.0,80,0.00,,,0.00,Wunderground v.1.15,2013-01-07 08:30:00,
2013-01-07 03:40:00,31.4,25.6,30.38,West,265,3.0,3.0,79,0.00,,,0.00,Wunderground v.1.15,2013-01-07 08:40:00,
2013-01-07 03:45:00,31.4,25.6,30.39,West,269,4.0,5.0,79,0.00,,,0.00,Wunderground v.1.15,2013-01-07 08:45:00,
2013-01-07 03:50:00,31.3,25.2,30.38,WNW,302,4.0,5.0,78,0.00,,,0.00,Wunderground v.1.15,2013-01-07 08:50:00,
2013-01-07 03:55:00,31.2,25.4,30.39,NW,311,5.0,5.0,79,0.00,,,0.00,Wunderground v.1.15,2013-01-07 08:55:00,
2013-01-07 04:00:00,31.0,25.2,30.39,WNW,292,5.0,5.0,79,0.00,,,0.00,Wunderground v.1.15,2013-01-07 09:00:00,
2013-01-07 04:10:00,31.0,25.2,30.40,West,278,4.0,4.0,79,0.00,,,0.00,Wunderground v.1.15,2013-01-07 09:10:00,
2013-01-07 04:15:00,30.9,25.2,30.40,NW,304,3.0,4.0,79,0.00,,,0.00,Wunderground v.1.15,2013-01-07 09:15:00,
2013-01-07 04:20:00,30.8,25.1,30.40,WNW,293,4.0,5.0,79,0.00,,,0.00,Wunderground v.1.15,2013-01-07 09:20:00,
2013-01-07 04:25:00,30.8,25.1,30.40,WNW,290,4.0,5.0,79,0.00,,,0.00,Wunderground v.1.15,2013-01-07 09:25:00,
2013-01-07 04:30:00,30.8,24.7,30.40,WNW,296,5.0,5.0,78,0.00,,,0.00,Wunderground v.1.15,2013-01-07 09:30:00,
2013-01-07 04:40:00,30.8,24.7,30.41,West,281,4.0,6.0,78,0.00,,,0.00,Wunderground v.1.15,2013-01-07 09:40:00,
2013-01-07 04:45:00,30.8,25.1,30.41,NW,315,4.0,6.0,79,0.00,,,0.00,Wunderground v.1.15,2013-01-07 09:45:00,
2013-01-07 04:55:00,30.6,24.9,30.41,WNW,298,3.0,5.0,79,0.00,,,0.00,Wunderground v.1.15,2013-01-07 09:55:00,
2013-01-07 05:00:00,30.6,24.9,30.41,West,267,3.0,3.0,79,0.00,,,0.00,Wunderground v.1.15,2013-01-07 10:00:00,
2013-01-07 05:05:00,30.6,24.6,30.41,WNW,296,3.0,4.0,78,0.00,,,0.00,Wunderground v.1.15,2013-01-07 10:05:00,
2013-01-07 05:10:00,30.5,24.8,30.41,WNW,302,3.0,3.0,79,0.00,,,0.00,Wunderground v.1.15,2013-01-07 10:10:00,
2013-01-07 05:20:00,30.4,24.7,30.41,NW,307,2.0,2.0,79,0.00,,,0.00,Wunderground v.1.15,2013-01-07 10:20:00,
2013-01-07 05:25:00,30.3,24.9,30.41,NW,304,2.0,2.0,80,0.00,,,0.00,Wunderground v.1.15,2013-01-07 10:25:00,
2013-01-07 05:30:00,30.2,24.5,30.41,WNW,293,1.0,1.0,79,0.00,,,0.00,Wunderground v.1.15,2013-01-07 10:30:00,
2013-01-07 05:40:00,30.3,24.6,30.41,WNW,296,2.0,2.0,79,0.00,,,0.00,Wunderground v.1.15,2013-01-07 10:40:00,
2013-01-07 05:45:00,30.3,24.6,30.42,WNW,295,1.0,2.0,79,0.00,,,0.00,Wunderground v.1.15,2013-01-07 10:45:00,
2013-01-07 05:55:00,30.2,24.8,30.42,NW,307,1.0,1.0,80,0.00,,,0.00,Wunderground v.1.15,2013-01-07 10:55:00,
2013-01-07 06:00:00,30.1,25.0,30.42,NW,307,0.0,0.0,81,0.00,,,0.00,Wunderground v.1.15,2013-01-07 11:00:00,
2013-01-07 06:05:00,30.1,25.0,30.43,NW,307,0.0,1.0,81,0.00,,,0.00,Wunderground v.1.15,2013-01-07 11:05:00,
2013-01-07 06:10:00,30.1,25.0,30.43,NW,307,0.0,1.0,81,0.00,,,0.00,Wunderground v.1.15,2013-01-07 11:10:00,
2013-01-07 06:20:00,30.2,24.8,30.44,WNW,296,1.0,1.0,80,0.00,,,0.00,Wunderground v.1.15,2013-01-07 11:20:00,
2013-01-07 06:25:00,30.3,24.6,30.44,WNW,296,0.0,1.0,79,0.00,,,0.00,Wunderground v.1.15,2013-01-07 11:25:00,
2013-01-07 06:30:00,30.4,24.7,30.45,NW,306,1.0,1.0,79,0.00,,,0.00,Wunderground v.1.15,2013-01-07 11:30:00,
2013-01-07 06:40:00,30.5,24.8,30.45,WNW,292,1.0,1.0,79,0.00,,,0.00,Wunderground v.1.15,2013-01-07 11:40:00,
2013-01-07 06:45:00,30.5,24.8,30.45,WNW,292,1.0,3.0,79,0.00,,,0.00,Wunderground v.1.15,2013-01-07 11:45:00,
2013-01-07 06:50:00,30.5,24.8,30.46,WNW,291,1.0,1.0,79,0.00,,,0.00,Wunderground v.1.15,2013-01-07 11:50:00,
2013-01-07 06:55:00,30.5,24.5,30.46,WNW,301,1.0,1.0,78,0.00,,,0.00,Wunderground v.1.15,2013-01-07 11:55:00,
2013-01-07 07:00:00,30.4,24.7,30.46,WNW,301,0.0,0.0,79,0.00,,,0.00,Wunderground v.1.15,2013-01-07 12:00:00,
2013-01-07 07:10:00,29.9,24.5,30.47,WNW,298,1.0,1.0,80,0.00,,,0.00,Wunderground v.1.15,2013-01-07 12:10:00,
2013-01-07 07:15:00,29.7,24.6,30.47,WNW,298,0.0,1.0,81,0.00,,,0.00,Wunderground v.1.15,2013-01-07 12:15:00,
2013-01-07 07:25:00,29.4,24.9,30.48,WNW,298,0.0,0.0,83,0.00,,,0.00,Wunderground v.1.15,2013-01-07 12:25:00,
2013-01-07 07:30:00,29.2,25.0,30.48,WNW,298,0.0,0.0,84,0.00,,,0.00,Wunderground v.1.15,2013-01-07 12:30:00,
2013-01-07 07:35:00,28.9,24.7,30.49,WNW,298,0.0,0.0,84,0.00,,,0.00,Wunderground v.1.15,2013-01-07 12:35:00,
2013-01-07 07:40:00,28.7,24.8,30.49,WNW,298,0.0,0.0,85,0.00,,,0.00,Wunderground v.1.15,2013-01-07 12:40:00,
2013-01-07 07:45:00,28.6,24.7,30.49,WNW,298,0.0,0.0,85,0.00,,,0.00,Wunderground v.1.15,2013-01-07 12:45:00,
2013-01-07 07:55:00,28.3,24.4,30.50,WNW,298,0.0,0.0,85,0.00,,,0.00,Wunderground v.1.15,2013-01-07 12:55:00,
2013-01-07 08:00:00,28.2,24.6,30.50,WNW,298,0.0,0.0,86,0.00,,,0.00,Wunderground v.1.15,2013-01-07 13:00:00,
2013-01-07 08:10:00,28.1,24.5,30.50,WNW,298,0.0,0.0,86,0.00,,,0.00,Wunderground v.1.15,2013-01-07 13:10:00,
2013-01-07 08:15:00,28.1,24.5,30.50,WNW,298,0.0,0.0,86,0.00,,,0.00,Wunderground v.1.15,2013-01-07 13:15:00,
2013-01-07 08:20:00,28.1,24.5,30.50,WNW,298,0.0,0.0,86,0.00,,,0.00,Wunderground v.1.15,2013-01-07 13:20:00,
2013-01-07 08:25:00,28.1,24.5,30.50,WNW,298,0.0,0.0,86,0.00,,,0.00,Wunderground v.1.15,2013-01-07 13:25:00,
2013-01-07 08:35:00,28.1,24.7,30.51,WNW,298,0.0,0.0,87,0.00,,,0.00,Wunderground v.1.15,2013-01-07 13:35:00,
2013-01-07 08:40:00,28.1,24.7,30.51,WNW,298,0.0,0.0,87,0.00,,,0.00,Wunderground v.1.15,2013-01-07 13:40:00,
2013-01-07 08:45:00,28.3,24.9,30.51,WNW,298,0.0,0.0,87,0.00,,,0.00,Wunderground v.1.15,2013-01-07 13:45:00,
2013-01-07 08:55:00,28.5,24.8,30.51,WNW,298,0.0,0.0,86,0.00,,,0.00,Wunderground v.1.15,2013-01-07 13:55:00,
2013-01-07 09:00:00,28.6,25.2,30.51,WNW,298,0.0,0.0,87,0.00,,,0.00,Wunderground v.1.15,2013-01-07 14:00:00,
2013-01-07 09:10:00,28.9,25.2,30.51,WNW,298,0.0,0.0,86,0.00,,,0.00,Wunderground v.1.15,2013-01-07 14:10:00,
2013-01-07 09:15:00,29.1,25.4,30.51,WNW,298,0.0,0.0,86,0.00,,,0.00,Wunderground v.1.15,2013-01-07 14:15:00,
2013-01-07 09:20:00,29.3,25.1,30.51,WNW,298,0.0,0.0,84,0.00,,,0.00,Wunderground v.1.15,2013-01-07 14:20:00,
2013-01-07 09:25:00,29.6,25.4,30.51,WNW,298,0.0,1.0,84,0.00,,,0.00,Wunderground v.1.15,2013-01-07 14:25:00,
2013-01-07 09:30:00,29.9,25.7,30.51,WNW,298,0.0,0.0,84,0.00,,,0.00,Wunderground v.1.15,2013-01-07 14:30:00,
2013-01-07 09:40:00,29.9,25.4,30.52,WNW,298,0.0,1.0,83,0.00,,,0.00,Wunderground v.1.15,2013-01-07 14:40:00,
2013-01-07 09:45:00,29.9,25.4,30.51,WNW,298,1.0,1.0,83,0.00,,,0.00,Wunderground v.1.15,2013-01-07 14:45:00,
2013-01-07 09:55:00,29.9,25.4,30.51,WNW,296,0.0,0.0,83,0.00,,,0.00,Wunderground v.1.15,2013-01-07 14:55:00,
2013-01-07 10:05:00,30.3,25.2,30.52,WNW,296,0.0,0.0,81,0.00,,,0.00,Wunderground v.1.15,2013-01-07 15:05:00,
2013-01-07 10:10:00,30.4,25.9,30.51,WNW,296,0.0,2.0,83,0.00,,,0.00,Wunderground v.1.15,2013-01-07 15:10:00,
2013-01-07 10:15:00,30.3,25.5,30.51,WNW,293,1.0,2.0,82,0.00,,,0.00,Wunderground v.1.15,2013-01-07 15:15:00,
2013-01-07 10:25:00,30.8,25.4,30.51,West,269,0.0,2.0,80,0.00,,,0.00,Wunderground v.1.15,2013-01-07 15:25:00,
2013-01-07 10:30:00,31.1,25.7,30.50,West,269,1.0,2.0,80,0.00,,,0.00,Wunderground v.1.15,2013-01-07 15:30:00,
2013-01-07 10:35:00,31.4,25.6,30.50,SW,225,1.0,2.0,79,0.00,,,0.00,Wunderground v.1.15,2013-01-07 15:35:00,
2013-01-07 10:45:00,31.7,25.9,30.50,SSW,210,1.0,2.0,79,0.00,,,0.00,Wunderground v.1.15,2013-01-07 15:45:00,
2013-01-07 10:50:00,32.0,26.2,30.50,SW,219,1.0,1.0,79,0.00,,,0.00,Wunderground v.1.15,2013-01-07 15:50:00,
2013-01-07 10:55:00,32.3,26.2,30.50,SW,219,1.0,1.0,78,0.00,,,0.00,Wunderground v.1.15,2013-01-07 15:55:00,
2013-01-07 11:00:00,32.8,26.4,30.50,SSW,203,1.0,1.0,77,0.00,,,0.00,Wunderground v.1.15,2013-01-07 16:00:00,
2013-01-07 11:10:00,33.9,26.8,30.50,SSE,150,1.0,1.0,75,0.00,,,0.00,Wunderground v.1.15,2013-01-07 16:10:00,
2013-01-07 11:15:00,34.3,27.2,30.50,SE,137,1.0,1.0,75,0.00,,,0.00,Wunderground v.1.15,2013-01-07 16:15:00,
2013-01-07 11:25:00,35.2,27.7,30.50,SSE,150,1.0,1.0,74,0.00,,,0.00,Wunderground v.1.15,2013-01-07 16:25:00,
2013-01-07 11:30:00,35.0,27.5,30.49,SE,128,1.0,1.0,74,0.00,,,0.00,Wunderground v.1.15,2013-01-07 16:30:00,
2013-01-07 11:35:00,35.1,27.0,30.49,South,176,1.0,4.0,72,0.00,,,0.00,Wunderground v.1.15,2013-01-07 16:35:00,
2013-01-07 11:40:00,34.4,26.6,30.48,SSW,213,2.0,2.0,73,0.00,,,0.00,Wunderground v.1.15,2013-01-07 16:40:00,
2013-01-07 11:50:00,33.9,27.4,30.47,SSW,213,2.0,2.0,77,0.00,,,0.00,Wunderground v.1.15,2013-01-07 16:50:00,
2013-01-07 11:55:00,34.1,26.7,30.47,SW,215,2.0,3.0,74,0.00,,,0.00,Wunderground v.1.15,2013-01-07 16:55:00,
2013-01-07 12:00:00,34.3,26.9,30.46,SW,215,2.0,2.0,74,0.00,,,0.00,Wunderground v.1.15,2013-01-07 17:00:00,
2013-01-07 12:05:00,34.4,27.3,30.46,SW,215,2.0,2.0,75,0.00,,,0.00,Wunderground v.1.15,2013-01-07 17:05:00,
2013-01-07 12:10:00,34.8,27.7,30.45,SW,215,2.0,2.0,75,0.00,,,0.00,Wunderground v.1.15,2013-01-07 17:10:00,
2013-01-07 12:20:00,35.7,27.9,30.45,South,178,1.0,1.0,73,0.00,,,0.00,Wunderground v.1.15,2013-01-07 17:20:00,
2013-01-07 12:25:00,36.5,28.7,30.45,South,178,1.0,1.0,73,0.00,,,0.00,Wunderground v.1.15,2013-01-07 17:25:00,
2013-01-07 12:30:00,37.1,28.9,30.45,SSE,151,1.0,1.0,72,0.00,,,0.00,Wunderground v.1.15,2013-01-07 17:30:00,
2013-01-07 12:40:00,37.2,29.3,30.44,SSE,167,1.0,1.0,73,0.00,,,0.00,Wunderground v.1.15,2013-01-07 17:40:00,
2013-01-07 12:45:00,37.2,29.0,30.44,SSW,202,1.0,1.0,72,0.00,,,0.00,Wunderground v.1.15,2013-01-07 17:45:00,
2013-01-07 12:50:00,37.3,28.8,30.43,SSW,205,1.0,1.0,71,0.00,,,0.00,Wunderground v.1.15,2013-01-07 17:50:00,
2013-01-07 12:55:00,37.4,29.2,30.43,SSW,205,1.0,2.0,72,0.00,,,0.00,Wunderground v.1.15,2013-01-07 17:55:00,
2013-01-07 13:05:00,37.6,29.7,30.43,SSW,204,1.0,1.0,73,0.00,,,0.00,Wunderground v.1.15,2013-01-07 18:05:00,
2013-01-07 13:10:00,37.5,29.3,30.42,SSW,205,1.0,2.0,72,0.00,,,0.00,Wunderground v.1.15,2013-01-07 18:10:00,
2013-01-07 13:15:00,37.8,29.6,30.42,SSW,205,1.0,3.0,72,0.00,,,0.00,Wunderground v.1.15,2013-01-07 18:15:00,
2013-01-07 13:25:00,38.2,29.3,30.42,SSW,207,2.0,2.0,70,0.00,,,0.00,Wunderground v.1.15,2013-01-07 18:25:00,
2013-01-07 13:30:00,38.3,29.0,30.42,SSW,207,1.0,2.0,69,0.00,,,0.00,Wunderground v.1.15,2013-01-07 18:30:00,
2013-01-07 13:35:00,38.5,29.6,30.41,SSW,207,2.0,2.0,70,0.00,,,0.00,Wunderground v.1.15,2013-01-07 18:35:00,
2013-01-07 13:40:00,38.5,29.6,30.41,SSW,207,2.0,2.0,70,0.00,,,0.00,Wunderground v.1.15,2013-01-07 18:40:00,
2013-01-07 13:45:00,38.7,29.4,30.41,SSW,207,1.0,3.0,69,0.00,,,0.00,Wunderground v.1.15,2013-01-07 18:45:00,
2013-01-07 13:55:00,39.3,29.3,30.41,SSW,207,3.0,3.0,67,0.00,,,0.00,Wunderground v.1.15,2013-01-07 18:55:00,
2013-01-07 14:00:00,39.8,29.4,30.41,SSW,207,2.0,2.0,66,0.00,,,0.00,Wunderground v.1.15,2013-01-07 19:00:00,
2013-01-07 14:10:00,39.8,29.4,30.41,SSW,207,1.0,2.0,66,0.00,,,0.00,Wunderground v.1.15,2013-01-07 19:10:00,
2013-01-07 14:15:00,40.0,29.2,30.41,SSW,207,2.0,2.0,65,0.00,,,0.00,Wunderground v.1.15,2013-01-07 19:15:00,
2013-01-07 14:20:00,40.0,29.6,30.41,SSW,207,3.0,3.0,66,0.00,,,0.00,Wunderground v.1.15,2013-01-07 19:20:00,
2013-01-07 14:25:00,40.0,29.6,30.40,SSW,207,3.0,3.0,66,0.00,,,0.00,Wunderground v.1.15,2013-01-07 19:25:00,
2013-01-07 14:35:00,40.5,30.0,30.40,SSW,207,1.0,3.0,66,0.00,,,0.00,Wunderground v.1.15,2013-01-07 19:35:00,
2013-01-07 14:40:00,40.7,29.8,30.40,SSW,207,1.0,1.0,65,0.00,,,0.00,Wunderground v.1.15,2013-01-07 19:40:00,
2013-01-07 14:45:00,41.0,30.5,30.40,SSW,207,1.0,1.0,66,0.00,,,0.00,Wunderground v.1.15,2013-01-07 19:45:00,
2013-01-07 14:55:00,41.3,30.4,30.39,SSW,207,1.0,1.0,65,0.00,,,0.00,Wunderground v.1.15,2013-01-07 19:55:00,
2013-01-07 15:00:00,41.6,30.7,30.39,SSW,207,1.0,2.0,65,0.00,,,0.00,Wunderground v.1.15,2013-01-07 20:00:00,
2013-01-07 15:05:00,41.7,30.8,30.40,SSW,207,1.0,2.0,65,0.00,,,0.00,Wunderground v.1.15,2013-01-07 20:05:00,
2013-01-07 15:10:00,41.8,30.5,30.40,SSW,213,1.0,1.0,64,0.00,,,0.00,Wunderground v.1.15,2013-01-07 20:10:00,
2013-01-07 15:20:00,41.7,30.0,30.40,SSW,213,1.0,1.0,63,0.00,,,0.00,Wunderground v.1.15,2013-01-07 20:20:00,
2013-01-07 15:30:00,41.3,29.6,30.40,SW,215,2.0,2.0,63,0.00,,,0.00,Wunderground v.1.15,2013-01-07 20:30:00,
2013-01-07 15:40:00,41.7,29.6,30.40,SW,216,1.0,1.0,62,0.00,,,0.00,Wunderground v.1.15,2013-01-07 20:40:00,
2013-01-07 15:45:00,42.0,29.5,30.40,SW,216,1.0,1.0,61,0.00,,,0.00,Wunderground v.1.15,2013-01-07 20:45:00,
2013-01-07 15:55:00,42.1,28.8,30.40,SW,215,2.0,3.0,59,0.00,,,0.00,Wunderground v.1.15,2013-01-07 20:55:00,
2013-01-07 16:00:00,41.8,29.3,30.40,SW,215,1.0,3.0,61,0.00,,,0.00,Wunderground v.1.15,2013-01-07 21:00:00,
2013-01-07 16:05:00,41.8,28.9,30.40,SW,215,2.0,3.0,60,0.00,,,0.00,Wunderground v.1.15,2013-01-07 21:05:00,
2013-01-07 16:10:00,41.6,29.1,30.40,SW,215,1.0,1.0,61,0.00,,,0.00,Wunderground v.1.15,2013-01-07 21:10:00,
2013-01-07 16:15:00,41.6,29.5,30.40,SW,215,1.0,1.0,62,0.00,,,0.00,Wunderground v.1.15,2013-01-07 21:15:00,
2013-01-07 16:25:00,41.5,29.4,30.40,SW,215,1.0,1.0,62,0.00,,,0.00,Wunderground v.1.15,2013-01-07 21:25:00,
2013-01-07 16:30:00,41.5,29.8,30.40,SW,215,1.0,1.0,63,0.00,,,0.00,Wunderground v.1.15,2013-01-07 21:30:00,
2013-01-07 16:40:00,41.0,30.1,30.40,SW,215,1.0,1.0,65,0.00,,,0.00,Wunderground v.1.15,2013-01-07 21:40:00,
2013-01-07 16:50:00,40.2,30.5,30.39,SW,215,0.0,0.0,68,0.00,,,0.00,Wunderground v.1.15,2013-01-07 21:50:00,
2013-01-07 16:55:00,40.1,30.7,30.39,SW,215,0.0,0.0,69,0.00,,,0.00,Wunderground v.1.15,2013-01-07 21:55:00,
2013-01-07 17:00:00,39.7,30.4,30.39,SW,215,0.0,0.0,69,0.00,,,0.00,Wunderground v.1.15,2013-01-07 22:00:00,
2013-01-07 17:10:00,38.9,30.3,30.39,SW,215,0.0,0.0,71,0.00,,,0.00,Wunderground v.1.15,2013-01-07 22:10:00,
2013-01-07 17:15:00,38.7,30.4,30.39,SW,215,0.0,0.0,72,0.00,,,0.00,Wunderground v.1.15,2013-01-07 22:15:00,
2013-01-07 17:25:00,37.9,30.0,30.40,SW,215,0.0,0.0,73,0.00,,,0.00,Wunderground v.1.15,2013-01-07 22:25:00,
2013-01-07 17:30:00,37.2,30.0,30.40,SW,215,0.0,0.0,75,0.00,,,0.00,Wunderground v.1.15,2013-01-07 22:30:00,
2013-01-07 17:35:00,36.6,29.7,30.40,SW,215,0.0,0.0,76,0.00,,,0.00,Wunderground v.1.15,2013-01-07 22:35:00,
2013-01-07 17:40:00,36.3,29.8,30.40,SW,215,0.0,0.0,77,0.00,,,0.00,Wunderground v.1.15,2013-01-07 22:40:00,
2013-01-07 17:45:00,35.7,29.5,30.40,SW,215,0.0,0.0,78,0.00,,,0.00,Wunderground v.1.15,2013-01-07 22:45:00,
2013-01-07 17:55:00,35.0,29.1,30.41,SW,215,0.0,0.0,79,0.00,,,0.00,Wunderground v.1.15,2013-01-07 22:55:00,
2013-01-07 18:00:00,34.5,29.3,30.41,SW,215,0.0,0.0,81,0.00,,,0.00,Wunderground v.1.15,2013-01-07 23:00:00,
2013-01-07 18:10:00,33.9,29.0,30.42,SW,215,0.0,0.0,82,0.00,,,0.00,Wunderground v.1.15,2013-01-07 23:10:00,
2013-01-07 18:15:00,33.7,28.8,30.42,SW,215,0.0,0.0,82,0.00,,,0.00,Wunderground v.1.15,2013-01-07 23:15:00,
2013-01-07 18:20:00,33.4,28.5,30.42,SW,215,0.0,0.0,82,0.00,,,0.00,Wunderground v.1.15,2013-01-07 23:20:00,
2013-01-07 18:25:00,33.0,28.4,30.42,SW,215,0.0,0.0,83,0.00,,,0.00,Wunderground v.1.15,2013-01-07 23:25:00,
2013-01-07 18:35:00,32.4,28.1,30.42,SW,215,0.0,0.0,84,0.00,,,0.00,Wunderground v.1.15,2013-01-07 23:35:00,
2013-01-07 18:40:00,32.0,28.0,30.42,SW,215,0.0,0.0,85,0.00,,,0.00,Wunderground v.1.15,2013-01-07 23:40:00,
2013-01-07 18:45:00,31.8,27.8,30.42,SW,215,0.0,0.0,85,0.00,,,0.00,Wunderground v.1.15,2013-01-07 23:45:00,
2013-01-07 18:55:00,31.4,27.7,30.43,SW,215,0.0,0.0,86,0.00,,,0.00,Wunderground v.1.15,2013-01-07 23:55:00,
2013-01-07 19:00:00,31.2,27.5,30.43,SW,215,0.0,0.0,86,0.00,,,0.00,Wunderground v.1.15,2013-01-08 00:00:00,
2013-01-07 19:05:00,31.0,27.3,30.43,SW,215,0.0,0.0,86,0.00,,,0.00,Wunderground v.1.15,2013-01-08 00:05:00,
2013-01-07 19:10:00,30.8,27.4,30.43,SW,215,0.0,0.0,87,0.00,,,0.00,Wunderground v.1.15,2013-01-08 00:10:00,
2013-01-07 19:15:00,30.6,27.2,30.43,SW,215,0.0,0.0,87,0.00,,,0.00,Wunderground v.1.15,2013-01-08 00:15:00,
2013-01-07 19:25:00,30.2,27.1,30.43,SW,215,0.0,0.0,88,0.00,,,0.00,Wunderground v.1.15,2013-01-08 00:25:00,
2013-01-07 19:30:00,30.1,27.0,30.43,SW,215,0.0,0.0,88,0.00,,,0.00,Wunderground v.1.15,2013-01-08 00:30:00,
2013-01-07 19:40:00,29.6,26.5,30.42,SW,215,0.0,0.0,88,0.00,,,0.00,Wunderground v.1.15,2013-01-08 00:40:00,
2013-01-07 19:45:00,29.4,26.3,30.43,SW,215,0.0,0.0,88,0.00,,,0.00,Wunderground v.1.15,2013-01-08 00:45:00,
2013-01-07 19:50:00,29.2,26.4,30.43,SW,215,0.0,0.0,89,0.00,,,0.00,Wunderground v.1.15,2013-01-08 00:50:00,
2013-01-07 19:55:00,29.0,26.2,30.43,SW,215,0.0,0.0,89,0.00,,,0.00,Wunderground v.1.15,2013-01-08 00:55:00,
2013-01-07 20:05:00,28.9,26.1,30.43,SW,215,0.0,0.0,89,0.00,,,0.00,Wunderground v.1.15,2013-01-08 01:05:00,
2013-01-07 20:10:00,28.8,26.0,30.43,SW,215,0.0,0.0,89,0.00,,,0.00,Wunderground v.1.15,2013-01-08 01:10:00,
2013-01-07 20:15:00,28.6,25.8,30.43,SW,215,0.0,0.0,89,0.00,,,0.00,Wunderground v.1.15,2013-01-08 01:15:00,
2013-01-07 20:25:00,28.3,25.7,30.43,SW,215,0.0,0.0,90,0.00,,,0.00,Wunderground v.1.15,2013-01-08 01:25:00,
2013-01-07 20:30:00,28.3,25.7,30.43,SW,215,0.0,0.0,90,0.00,,,0.00,Wunderground v.1.15,2013-01-08 01:30:00,
2013-01-07 20:35:00,28.1,25.5,30.43,SW,215,0.0,0.0,90,0.00,,,0.00,Wunderground v.1.15,2013-01-08 01:35:00,
2013-01-07 20:40:00,27.9,25.3,30.43,SW,215,0.0,0.0,90,0.00,,,0.00,Wunderground v.1.15,2013-01-08 01:40:00,
2013-01-07 20:50:00,27.6,25.1,30.43,SW,215,0.0,0.0,90,0.00,,,0.00,Wunderground v.1.15,2013-01-08 01:50:00,
2013-01-07 20:55:00,27.4,24.9,30.43,SW,215,0.0,0.0,90,0.00,,,0.00,Wunderground v.1.15,2013-01-08 01:55:00,
2013-01-07 21:00:00,27.3,24.8,30.43,SW,215,0.0,0.0,90,0.00,,,0.00,Wunderground v.1.15,2013-01-08 02:00:00,
2013-01-07 21:10:00,26.9,24.6,30.43,SW,215,0.0,0.0,91,0.00,,,0.00,Wunderground v.1.15,2013-01-08 02:10:00,
2013-01-07 21:15:00,26.8,24.5,30.42,SW,215,0.0,0.0,91,0.00,,,0.00,Wunderground v.1.15,2013-01-08 02:15:00,
2013-01-07 21:25:00,26.6,24.3,30.42,SW,215,0.0,0.0,91,0.00,,,0.00,Wunderground v.1.15,2013-01-08 02:25:00,
2013-01-07 21:30:00,26.6,24.3,30.42,SW,215,0.0,0.0,91,0.00,,,0.00,Wunderground v.1.15,2013-01-08 02:30:00,
2013-01-07 21:35:00,26.4,24.1,30.42,SW,215,0.0,0.0,91,0.00,,,0.00,Wunderground v.1.15,2013-01-08 02:35:00,
2013-01-07 21:40:00,26.3,24.0,30.42,SW,215,0.0,0.0,91,0.00,,,0.00,Wunderground v.1.15,2013-01-08 02:40:00,
2013-01-07 21:45:00,26.2,23.9,30.42,SW,215,0.0,0.0,91,0.00,,,0.00,Wunderground v.1.15,2013-01-08 02:45:00,
2013-01-07 21:55:00,26.0,24.0,30.42,SW,215,0.0,0.0,92,0.00,,,0.00,Wunderground v.1.15,2013-01-08 02:55:00,
2013-01-07 22:00:00,25.9,23.6,30.42,SW,215,0.0,0.0,91,0.00,,,0.00,Wunderground v.1.15,2013-01-08 03:00:00,
2013-01-07 22:10:00,25.7,23.7,30.42,SW,215,0.0,0.0,92,0.00,,,0.00,Wunderground v.1.15,2013-01-08 03:10:00,
2013-01-07 22:15:00,25.5,23.5,30.42,SW,215,0.0,0.0,92,0.00,,,0.00,Wunderground v.1.15,2013-01-08 03:15:00,
2013-01-07 22:20:00,25.4,23.4,30.41,SW,215,0.0,0.0,92,0.00,,,0.00,Wunderground v.1.15,2013-01-08 03:20:00,
2013-01-07 22:25:00,25.3,23.3,30.41,SW,215,0.0,0.0,92,0.00,,,0.00,Wunderground v.1.15,2013-01-08 03:25:00,
2013-01-07 22:35:00,25.1,23.1,30.41,SW,215,0.0,0.0,92,0.00,,,0.00,Wunderground v.1.15,2013-01-08 03:35:00,
2013-01-07 22:40:00,25.1,23.1,30.42,SW,215,0.0,0.0,92,0.00,,,0.00,Wunderground v.1.15,2013-01-08 03:40:00,
2013-01-07 22:50:00,25.0,23.0,30.42,SW,215,0.0,0.0,92,0.00,,,0.00,Wunderground v.1.15,2013-01-08 03:50:00,
2013-01-07 22:55:00,24.9,22.9,30.42,SW,215,0.0,0.0,92,0.00,,,0.00,Wunderground v.1.15,2013-01-08 03:55:00,
2013-01-07 23:00:00,24.8,23.1,30.42,SW,215,0.0,0.0,93,0.00,,,0.00,Wunderground v.1.15,2013-01-08 04:00:00,
2013-01-07 23:10:00,24.7,23.0,30.42,SW,215,0.0,0.0,93,0.00,,,0.00,Wunderground v.1.15,2013-01-08 04:10:00,
2013-01-07 23:15:00,24.7,22.7,30.42,SW,215,0.0,0.0,92,0.00,,,0.00,Wunderground v.1.15,2013-01-08 04:15:00,
2013-01-07 23:20:00,24.7,23.0,30.42,SW,215,0.0,0.0,93,0.00,,,0.00,Wunderground v.1.15,2013-01-08 04:20:00,
2013-01-07 23:30:00,24.5,22.8,30.42,SW,215,0.0,0.0,93,0.00,,,0.00,Wunderground v.1.15,2013-01-08 04:30:00,
2013-01-07 23:40:00,24.2,22.2,30.42,SW,215,0.0,0.0,92,0.00,,,0.00,Wunderground v.1.15,2013-01-08 04:40:00,
2013-01-07 23:45:00,24.2,22.5,30.42,SW,215,1.0,3.0,93,0.00,,,0.00,Wunderground v.1.15,2013-01-08 04:45:00,
2013-01-07 23:55:00,24.5,22.8,30.42,SW,215,0.0,1.0,93,0.00,,,0.00,Wunderground v.1.15,2013-01-08 04:55:00,